TimePST,TemperatureF,Dew PointF,Humidity,Sea Level PressureIn,VisibilityMPH,Wind Direction,Wind SpeedMPH,Gust SpeedMPH,PrecipitationIn,Events,Conditions,WindDirDegrees,DateUTC
12:24 AM,44.6,44.6,100,29.86,2.0,SSE,11.5,21.9,0.01,Rain,Light Rain,150,2013-01-07 08:24:00
12:35 AM,44.6,44.6,100,29.86,1.8,SSE,6.9,-,0.02,Rain,Light Rain,160,2013-01-07 08:35:00
12:42 AM,44.6,44.6,100,29.86,1.8,SSE,8.1,-,0.02,Rain,Light Rain,150,2013-01-07 08:42:00
12:53 AM,45.0,44.1,97,29.86,2.5,Variable,3.5,-,0.03,Rain,Light Rain,0,2013-01-07 08:53:00
1:18 AM,44.6,44.6,100,29.85,1.5,SSE,5.8,-,0.00,Rain,Light Rain,160,2013-01-07 09:18:00
1:25 AM,44.6,44.6,100,29.84,1.2,Variable,5.8,-,N/A,Rain,Light Rain,0,2013-01-07 09:25:00
1:35 AM,44.6,44.6,100,29.84,1.8,Variable,6.9,-,0.03,Rain,Light Rain,0,2013-01-07 09:35:00
1:43 AM,44.6,44.6,100,29.84,2.0,SSE,6.9,-,0.04,Rain,Light Rain,160,2013-01-07 09:43:00
1:50 AM,44.6,44.6,100,29.84,1.5,SSE,4.6,-,0.05,Rain,Light Rain,160,2013-01-07 09:50:00
1:53 AM,45.0,44.1,97,29.85,1.5,SSE,6.9,-,0.05,Rain,Light Rain,150,2013-01-07 09:53:00
2:35 AM,44.6,44.6,100,29.84,1.2,SE,5.8,-,0.09,Rain,Rain,140,2013-01-07 10:35:00
2:42 AM,44.6,44.6,100,29.84,1.5,SSE,5.8,-,N/A,Rain,Light Rain,150,2013-01-07 10:42:00
2:53 AM,45.0,44.1,97,29.86,1.8,Calm,Calm,-,0.12,Rain,Rain,0,2013-01-07 10:53:00
3:43 AM,46.4,46.4,100,29.82,1.5,South,8.1,-,0.13,Rain,Rain,180,2013-01-07 11:43:00
3:50 AM,46.4,46.4,100,29.82,1.5,SSW,6.9,-,0.15,Rain,Rain,210,2013-01-07 11:50:00
3:53 AM,46.0,46.0,100,29.82,1.5,Variable,4.6,-,0.16,Rain,Rain,0,2013-01-07 11:53:00
4:24 AM,46.4,46.4,100,29.80,1.2,South,8.1,-,N/A,Rain,Rain,180,2013-01-07 12:24:00
4:43 AM,46.4,46.4,100,29.80,1.2,Variable,5.8,-,0.14,Rain,Rain,0,2013-01-07 12:43:00
4:53 AM,46.9,46.9,100,29.81,1.5,Variable,6.9,-,0.17,Rain,Rain,0,2013-01-07 12:53:00
4:57 AM,46.4,46.4,100,29.80,1.2,WSW,6.9,-,0.01,Rain,Rain,240,2013-01-07 12:57:00
5:17 AM,46.4,46.4,100,29.80,0.8,South,5.8,-,0.09,Rain,Rain,190,2013-01-07 13:17:00
5:36 AM,46.4,46.4,100,29.80,1.0,South,8.1,-,0.17,Rain,Rain,180,2013-01-07 13:36:00
5:53 AM,46.9,46.9,100,29.81,1.0,South,9.2,-,0.20,Rain,Light Rain,190,2013-01-07 13:53:00
6:06 AM,48.2,46.4,93,29.80,0.8,SSW,6.9,-,0.02,Rain,Light Rain,200,2013-01-07 14:06:00
6:53 AM,48.0,48.0,100,29.81,1.0,SW,11.5,-,0.14,Rain,Light Rain,230,2013-01-07 14:53:00
7:23 AM,48.2,48.2,100,29.81,0.8,WSW,11.5,-,0.05,Rain,Light Rain,240,2013-01-07 15:23:00
7:53 AM,48.9,48.0,97,29.83,0.8,WSW,13.8,21.9,0.11,Rain,Light Rain,250,2013-01-07 15:53:00
8:08 AM,48.2,48.2,100,29.83,1.0,WSW,15.0,-,0.03,Rain,Light Rain,250,2013-01-07 16:08:00
8:34 AM,48.2,48.2,100,29.85,0.5,WSW,12.7,20.7,0.07,Fog-Rain,Light Rain,250,2013-01-07 16:34:00
8:53 AM,48.9,48.0,97,29.86,0.5,WSW,15.0,-,0.10,Fog-Rain,Light Rain,250,2013-01-07 16:53:00
9:53 AM,48.0,48.0,100,29.90,0.5,West,11.5,-,0.05,Fog-Rain,Light Rain,260,2013-01-07 17:53:00
10:30 AM,48.2,46.4,93,29.91,0.2,West,19.6,26.5,0.02,Fog-Rain,Light Rain,260,2013-01-07 18:30:00
10:42 AM,48.2,46.4,93,29.91,0.5,West,16.1,24.2,0.03,Fog-Rain,Light Rain,260,2013-01-07 18:42:00
10:53 AM,48.2,46.4,93,29.92,0.5,West,18.4,23.0,N/A,Fog-Rain,Light Rain,260,2013-01-07 18:53:00
11:05 AM,48.2,46.4,93,29.94,0.2,West,17.3,26.5,0.01,Fog-Rain,Light Rain,260,2013-01-07 19:05:00
11:19 AM,46.4,46.4,100,29.94,0.5,West,17.3,26.5,0.02,Fog-Rain,Light Rain,260,2013-01-07 19:19:00
11:53 AM,46.9,46.9,100,29.97,0.5,West,15.0,23.0,0.03,Fog,Fog,260,2013-01-07 19:53:00
12:29 PM,46.4,46.4,100,29.98,1.5,West,13.8,-,0.01,Rain,Light Rain,260,2013-01-07 20:29:00
12:34 PM,46.4,46.4,100,29.98,0.8,West,15.0,23.0,0.02,Rain,Light Rain,260,2013-01-07 20:34:00
12:53 PM,46.9,46.9,100,30.00,0.5,West,11.5,-,0.04,Fog-Rain,Light Rain,270,2013-01-07 20:53:00
1:21 PM,46.4,46.4,100,30.00,1.5,West,11.5,19.6,0.01,,Overcast,280,2013-01-07 21:21:00
1:30 PM,46.4,46.4,100,30.00,1.0,West,8.1,17.3,0.02,Rain,Light Rain,270,2013-01-07 21:30:00
1:37 PM,46.4,46.4,100,30.00,1.5,West,13.8,21.9,0.02,,Overcast,270,2013-01-07 21:37:00
1:53 PM,48.0,46.0,93,30.01,2.0,West,8.1,-,0.02,,Overcast,270,2013-01-07 21:53:00
2:00 PM,48.2,46.4,93,30.01,2.0,West,9.2,-,N/A,,Overcast,270,2013-01-07 22:00:00
2:53 PM,46.4,44.6,93,30.05,1.5,West,10.4,-,N/A,Rain,Light Rain,270,2013-01-07 22:53:00
3:08 PM,46.4,44.6,93,30.06,2.0,West,6.9,-,0.00,,Overcast,260,2013-01-07 23:08:00
3:46 PM,46.4,44.6,93,30.08,2.5,West,5.8,-,0.00,,Overcast,260,2013-01-07 23:46:00
3:53 PM,46.9,44.1,90,30.09,2.5,WSW,5.8,-,0.00,,Overcast,250,2013-01-07 23:53:00
4:25 PM,46.4,44.6,93,30.09,2.5,WSW,6.9,-,0.00,,Mostly Cloudy,250,2013-01-08 00:25:00
4:53 PM,46.0,43.0,89,30.10,4.0,SW,4.6,-,0.00,,Overcast,230,2013-01-08 00:53:00
5:53 PM,46.0,42.1,86,30.11,4.0,WSW,5.8,-,N/A,,Overcast,240,2013-01-08 01:53:00
6:53 PM,45.0,42.1,90,30.13,4.0,West,5.8,-,N/A,,Mostly Cloudy,260,2013-01-08 02:53:00
7:53 PM,45.0,42.1,90,30.13,4.0,West,4.6,-,N/A,,Overcast,270,2013-01-08 03:53:00
8:53 PM,43.0,41.0,93,30.14,4.0,West,3.5,-,N/A,,Overcast,270,2013-01-08 04:53:00
9:09 PM,42.8,41.0,93,30.13,2.5,Calm,Calm,-,N/A,,Overcast,0,2013-01-08 05:09:00
9:19 PM,42.8,41.0,93,30.14,3.0,Calm,Calm,-,N/A,,Overcast,0,2013-01-08 05:19:00
9:35 PM,39.2,39.2,100,30.13,1.8,Calm,Calm,-,N/A,,Mostly Cloudy,0,2013-01-08 05:35:00
9:45 PM,39.2,39.2,100,30.13,3.0,ESE,4.6,-,N/A,,Mostly Cloudy,110,2013-01-08 05:45:00
9:53 PM,41.0,39.9,96,30.14,3.0,East,3.5,-,N/A,,Scattered Clouds,100,2013-01-08 05:53:00
10:05 PM,39.2,39.2,100,30.14,2.5,Calm,Calm,-,N/A,,Mostly Cloudy,0,2013-01-08 06:05:00
10:18 PM,37.4,37.4,100,30.14,1.2,Calm,Calm,-,N/A,,Mostly Cloudy,0,2013-01-08 06:18:00
10:30 PM,37.4,37.4,100,30.15,0.8,Calm,Calm,-,N/A,,Mostly Cloudy,0,2013-01-08 06:30:00
10:38 PM,39.2,39.2,100,30.14,1.5,Calm,Calm,-,N/A,,Mostly Cloudy,0,2013-01-08 06:38:00
10:53 PM,39.0,39.0,100,30.15,2.5,Calm,Calm,-,N/A,,Overcast,0,2013-01-08 06:53:00
11:09 PM,41.0,39.2,93,30.15,3.0,Calm,Calm,-,N/A,,Overcast,0,2013-01-08 07:09:00
11:17 PM,39.2,39.2,100,30.14,1.8,Calm,Calm,-,N/A,,Overcast,0,2013-01-08 07:17:00
11:25 PM,39.2,39.2,100,30.15,1.5,Calm,Calm,-,N/A,,Overcast,0,2013-01-08 07:25:00
11:38 PM,39.2,39.2,100,30.14,3.0,Calm,Calm,-,N/A,,Overcast,0,2013-01-08 07:38:00
11:53 PM,39.9,39.0,97,30.15,3.0,Calm,Calm,-,N/A,,Overcast,0,2013-01-08 07:53:00